Location: Red Deer
(52.2681°N, 113.8112°W)
Time: 20:29:25
(UTC-07:00)

BlueWalker 3 - Pass Details

Date: 03 December 2022
Orbit: 499 x 517 km, 53.2° (Epoch: 05 February)

Event Time Altitude Azimuth Distance (km) Brightness Sun altitude
Rises 16:38:11 0° 251° (WSW) 2,628 7.5 -2.5°
Reaches altitude 10° 16:40:23 10° 251° (WSW) 1,739 6.4 -2.8°
Drops below altitude 10° 16:48:15 10° 77° (ENE) 1,731 4.1 -3.8°
Enters shadow 16:49:35 - 76° (ENE) 2,269 4.6 -4.0°
Exits shadow 17:24:41 -73° 83° (E) 12,723 8.9 -8.7°
Maximum altitude 18:23:05 77° 4° (N) 528 1.9 -17.1°
